Cape Girardeau, MO

10:27 AM CDT on June 25, 2017 (GMT -0500)
Cape Girardeau Regional

Weather History for KCGI - July, 2014

Change the Weather History Date:

Sunday, July 20, 2014

  Actual Average Record
Temperature  
Mean Temperature 72 °F 79 °F  
Max Temperature 84 °F 89 °F 103 °F (1983)
Min Temperature 60 °F 68 °F 58 °F (2009)
Degree Days  
Heating Degree Days 0 0  
Month to date heating degree days 0 0  
Since 1 June heating degree days 0 4  
Since 1 July heating degree days 0 0  
Cooling Degree Days 7 14  
Month to date cooling degree days 187 277  
Year to date cooling degree days 757 741  
Since 1 June cooling degree days 546 589  
Growing Degree Days 21 (Base 50)    
Moisture  
Dew Point 62 °F    
Average Humidity 74    
Maximum Humidity 100    
Minimum Humidity 47    
Precipitation  
Precipitation 0.00 in 0.10 in 1.40 in (1975)
Month to date precipitation 1.83 2.17  
Year to date precipitation 27.72 26.84  
Sea Level Pressure  
Sea Level Pressure 30.04 in    
Wind  
Wind Speed 2 mph (ESE)    
Max Wind Speed 8 mph    
Max Gust Speed 12 mph    
Visibility 5 miles    
Events Fog    
T = Trace of Precipitation, MM = Missing Value Source: NWS Daily Summary

Daily Weather History Graph

Daily Weather History Graph

Search for Another Location

Airport or City:

Trip Planner

Search our weather history database for the weather conditions in past years. The results will help you decide how hot, cold, wet, or windy it might be!

Date:

Astronomy

Jul. 20, 2014 Rise Set
Actual Time 5:53 AM CDT 8:15 PM CDT
Civil Twilight 5:23 AM CDT 8:45 PM CDT
Nautical Twilight 4:46 AM CDT 9:21 PM CDT
Astronomical Twilight 4:06 AM CDT 10:01 PM CDT
Moon 1:02 AM CDT (7/20) 3:00 PM CDT (7/20)
Length of Visible Light 15h 21m
Length of Day
14h 21m
Waning Crescent, 33% of the Moon is Illuminated
Jul 20
Waning Crescent
Jul 26
New
Aug 3
First Quarter
Aug 10
Full
Aug 17
Last Quarter

Hourly Weather History & Observations

Time (CDT) Temp. Heat Index Dew Point Humidity Pressure Visibility Wind Dir Wind Speed Gust Speed Precip Events Conditions
12:53 AM 64.0 °F - 62.1 °F 93% 30.01 in 5.0 mi Calm Calm - N/A   Clear
1:53 AM 61.0 °F - 59.0 °F 93% 30.01 in 6.0 mi Calm Calm - N/A   Clear
2:53 AM 61.0 °F - 60.1 °F 97% 30.01 in 5.0 mi Calm Calm - N/A   Partly Cloudy
3:09 AM 61.0 °F - 59.0 °F 93% 30.01 in 2.5 mi Calm Calm - N/A   Mostly Cloudy
3:11 AM 61.0 °F - 59.0 °F 93% 30.01 in 0.8 mi Calm Calm - N/A   Mist
3:19 AM 61.0 °F - 60.1 °F 97% 30.01 in 0.2 mi Calm Calm - N/A Fog Fog
3:25 AM 61.0 °F - 60.1 °F 97% 30.01 in 1.2 mi Calm Calm - N/A   Overcast
3:39 AM 61.0 °F - 60.1 °F 97% 30.01 in 0.2 mi Calm Calm - N/A Fog Fog
3:53 AM 61.0 °F - 60.1 °F 97% 30.01 in 0.2 mi Calm Calm - N/A Fog Fog
4:40 AM 62.1 °F - 61.0 °F 96% 30.03 in 1.0 mi Calm Calm - N/A   Overcast
4:53 AM 62.1 °F - 60.1 °F 93% 30.02 in 1.8 mi Calm Calm - N/A   Mostly Cloudy
5:04 AM 61.0 °F - 60.1 °F 97% 30.03 in 1.5 mi Calm Calm - N/A   Scattered Clouds
5:48 AM 60.8 °F - 60.8 °F 100% 30.04 in 0.2 mi SW 3.5 mph - N/A Fog Fog
5:53 AM 60.1 °F - 60.1 °F 100% 30.04 in 0.2 mi Calm Calm - N/A Fog Fog
6:18 AM 61.0 °F - 60.1 °F 97% 30.05 in 0.8 mi Calm Calm - N/A   Clear
6:27 AM 61.0 °F - 60.1 °F 97% 30.05 in 1.0 mi Calm Calm - N/A   Clear
6:53 AM 62.1 °F - 61.0 °F 96% 30.06 in 1.0 mi Calm Calm - N/A   Clear
7:21 AM 64.0 °F - 62.1 °F 93% 30.07 in 2.0 mi Calm Calm - N/A   Clear
7:42 AM 66.0 °F - 63.0 °F 90% 30.08 in 3.0 mi Calm Calm - N/A   Clear
7:53 AM 66.0 °F - 64.0 °F 93% 30.07 in 4.0 mi Calm Calm - N/A   Clear
8:18 AM 66.9 °F - 64.9 °F 93% 30.07 in 2.5 mi ENE 4.6 mph - N/A   Partly Cloudy
8:25 AM 66.9 °F - 64.9 °F 93% 30.08 in 1.0 mi East 3.5 mph - N/A   Mist
8:32 AM 66.9 °F - 66.0 °F 97% 30.08 in 0.5 mi Calm Calm - N/A Fog Fog
8:53 AM 68.0 °F - 66.9 °F 96% 30.08 in 1.5 mi Calm Calm - N/A   Overcast
9:02 AM 70.0 °F - 66.9 °F 90% 30.08 in 2.5 mi Calm Calm - N/A   Mostly Cloudy
9:05 AM 70.0 °F - 66.9 °F 90% 30.08 in 3.0 mi Calm Calm - N/A   Scattered Clouds
9:53 AM 73.0 °F - 66.0 °F 79% 30.07 in 8.0 mi Calm Calm - N/A   Clear
10:53 AM 78.1 °F - 62.1 °F 58% 30.06 in 10.0 mi Calm Calm - N/A   Mostly Cloudy
11:53 AM 80.1 °F 80.7 °F 59.0 °F 48% 30.06 in 10.0 mi Variable 4.6 mph - N/A   Mostly Cloudy
12:53 PM 81.0 °F 81.6 °F 60.1 °F 49% 30.04 in 10.0 mi Calm Calm - N/A   Clear
1:53 PM 81.0 °F 81.7 °F 61.0 °F 50% 30.03 in 10.0 mi SE 3.5 mph - N/A   Scattered Clouds
2:53 PM 82.9 °F 83.2 °F 60.1 °F 46% 30.02 in 10.0 mi Calm Calm - N/A   Mostly Cloudy
3:53 PM 81.0 °F 81.6 °F 60.1 °F 49% 30.01 in 10.0 mi Calm Calm - N/A   Partly Cloudy
4:53 PM 81.0 °F 81.7 °F 61.0 °F 50% 30.01 in 10.0 mi NE 5.8 mph - N/A   Overcast
5:53 PM 82.9 °F 83.3 °F 61.0 °F 47% 30.01 in 10.0 mi Calm Calm - N/A   Clear
6:53 PM 80.1 °F 81.2 °F 62.1 °F 54% 30.01 in 10.0 mi East 6.9 mph - N/A   Clear
7:53 PM 75.0 °F - 64.9 °F 71% 30.01 in 10.0 mi SE 4.6 mph - N/A   Clear
8:53 PM 70.0 °F - 64.9 °F 84% 30.01 in 9.0 mi SE 5.8 mph - N/A   Clear
9:53 PM 69.1 °F - 64.0 °F 84% 30.02 in 8.0 mi SE 4.6 mph - N/A   Clear
10:53 PM 69.1 °F - 64.0 °F 84% 30.02 in 8.0 mi Calm Calm - N/A   Clear
11:53 PM 64.0 °F - 62.1 °F 93% 30.03 in 5.0 mi WSW 3.5 mph - N/A   Clear